Change the Weather History Date:

Tuesday, October 30, 2012

  Actual Average (KRDU) Record (KRDU)
Temperature  
Mean Temperature 46 °F 57 °F  
Max Temperature 51 °F 69 °F 86 °F (1996)
Min Temperature 41 °F 45 °F 24 °F (1965)
Degree Days  
Heating Degree Days 19 9  
Month to date heating degree days 159  
Since 1 July heating degree days 180  
Cooling Degree Days 0 1  
Month to date cooling degree days 52  
Year to date cooling degree days 1720  
Moisture  
Dew Point 33 °F    
Average Humidity 60    
Maximum Humidity 87    
Minimum Humidity 44    
Precipitation  
Precipitation 0.05 in 0.10 in 3.41 in (1917)
Month to date precipitation 3.15  
Year to date precipitation 37.05  
Sea Level Pressure  
Sea Level Pressure 29.46 in    
Wind  
Wind Speed 11 mph (WSW)    
Max Wind Speed 16 mph    
Max Gust Speed 26 mph    
Visibility 10 miles    
Events Rain    
T = Trace of Precipitation, MM = Missing Value Source: NWS Daily Summary

Daily Weather History Graph

Daily Weather History Graph

Search for Another Location

Airport or City:

Trip Planner

Search our weather history database for the weather conditions in past years. The results will help you decide how hot, cold, wet, or windy it might be!

Date:

Astronomy

Oct. 30, 2012 Rise Set
Actual Time 7:36 AM EDT 6:22 PM EDT
Civil Twilight 7:10 AM EDT 6:49 PM EDT
Nautical Twilight 6:40 AM EDT 7:19 PM EDT
Astronomical Twilight 6:10 AM EDT 7:48 PM EDT
Moon 6:54 PM EDT (10/30) 8:19 AM EDT (10/30)
Length of Visible Light 11h 38m
Length of Day
10h 45m
Full, 99% of the Moon is Illuminated
Oct 30
Full
Nov 6
Last Quarter
Nov 13
New
Nov 20
First Quarter
Nov 28
Full

Hourly Weather History & Observations

Time (EDT) Temp. Windchill Dew Point Humidity Pressure Visibility Wind Dir Wind Speed Gust Speed Precip Events Conditions
12:15 AM 42.8 °F 35.8 °F 35.6 °F 76% 29.35 in 10.0 mi WSW 13.8 mph 26.5 mph N/A   Light Drizzle
12:35 AM 42.8 °F 35.8 °F 35.6 °F 76% 29.35 in 10.0 mi West 13.8 mph 25.3 mph N/A   Light Drizzle
1:15 AM 42.8 °F 35.4 °F 35.6 °F 76% 29.34 in 10.0 mi WSW 15.0 mph 23.0 mph 0.01 in Rain Rain
1:35 AM 42.8 °F 37.0 °F 37.4 °F 81% 29.34 in 10.0 mi WSW 10.4 mph 18.4 mph 0.02 in Rain Rain
1:55 AM 42.8 °F 36.6 °F 37.4 °F 81% 29.33 in 10.0 mi WSW 11.5 mph 17.3 mph 0.03 in Rain Light Rain
2:15 AM 41.0 °F 35.8 °F 37.4 °F 87% 29.33 in 10.0 mi WSW 8.1 mph - 0.01 in Rain Light Rain
2:35 AM 42.8 °F 37.0 °F 35.6 °F 76% 29.33 in 10.0 mi WSW 10.4 mph 23.0 mph 0.01 in Rain Light Rain
2:55 AM 42.8 °F 35.4 °F 35.6 °F 76% 29.33 in 10.0 mi WSW 15.0 mph 20.7 mph 0.02 in Rain Rain
3:15 AM 42.8 °F 36.6 °F 35.6 °F 76% 29.33 in 10.0 mi WSW 11.5 mph 20.7 mph N/A   Drizzle
3:35 AM 42.8 °F 38.0 °F 35.6 °F 76% 29.33 in 10.0 mi WSW 8.1 mph 16.1 mph N/A   Light Drizzle
3:55 AM 42.8 °F 35.8 °F 33.8 °F 70% 29.33 in 10.0 mi WSW 13.8 mph 24.2 mph N/A   Drizzle
4:15 AM 42.8 °F 36.2 °F 33.8 °F 70% 29.34 in 10.0 mi WSW 12.7 mph 23.0 mph N/A   Light Drizzle
4:35 AM 42.8 °F 35.8 °F 33.8 °F 70% 29.34 in 10.0 mi WSW 13.8 mph 23.0 mph N/A   Light Drizzle
4:55 AM 42.8 °F 38.0 °F 33.8 °F 70% 29.35 in 10.0 mi WSW 8.1 mph 16.1 mph N/A   Overcast
5:15 AM 44.6 °F 38.1 °F 32.0 °F 61% 29.35 in 10.0 mi WSW 13.8 mph 23.0 mph N/A   Overcast
5:35 AM 44.6 °F 38.8 °F 32.0 °F 61% 29.36 in 10.0 mi WSW 11.5 mph 18.4 mph N/A   Light Drizzle
6:15 AM 44.6 °F 38.1 °F 32.0 °F 61% 29.37 in 10.0 mi WSW 13.8 mph 19.6 mph N/A   Overcast
6:35 AM 44.6 °F 39.2 °F 32.0 °F 61% 29.37 in 10.0 mi WSW 10.4 mph 16.1 mph N/A   Overcast
7:15 AM 44.6 °F 39.7 °F 32.0 °F 61% 29.38 in 10.0 mi West 9.2 mph 17.3 mph N/A   Overcast
7:35 AM 44.6 °F 40.7 °F 32.0 °F 61% 29.39 in 10.0 mi WSW 6.9 mph - N/A   Overcast
7:55 AM 44.6 °F 40.7 °F 32.0 °F 61% 29.40 in 10.0 mi WSW 6.9 mph - N/A   Overcast
8:15 AM 44.6 °F 39.2 °F 32.0 °F 61% 29.40 in 10.0 mi West 10.4 mph 20.7 mph N/A   Overcast
8:35 AM 44.6 °F 38.4 °F 32.0 °F 61% 29.40 in 10.0 mi WSW 12.7 mph 16.1 mph N/A   Overcast
8:55 AM 44.6 °F 38.1 °F 32.0 °F 61% 29.41 in 10.0 mi SW 13.8 mph 18.4 mph N/A   Overcast
9:35 AM 46.4 °F 41.9 °F 32.0 °F 57% 29.42 in 10.0 mi WSW 9.2 mph 20.7 mph N/A   Overcast
9:55 AM 46.4 °F 40.7 °F 32.0 °F 57% 29.43 in 10.0 mi WSW 12.7 mph 17.3 mph N/A   Overcast
10:15 AM 46.4 °F 40.7 °F 32.0 °F 57% 29.43 in 10.0 mi WSW 12.7 mph 18.4 mph N/A   Overcast
10:35 AM 46.4 °F 41.5 °F 32.0 °F 57% 29.43 in 10.0 mi WSW 10.4 mph 18.4 mph N/A   Overcast
10:55 AM 48.2 °F - 32.0 °F 54% 29.44 in 10.0 mi SW 9.2 mph - N/A   Overcast
11:15 AM 48.2 °F - 32.0 °F 54% 29.44 in 10.0 mi SW 11.5 mph - N/A   Overcast
11:35 AM 50.0 °F - 32.0 °F 50% 29.45 in 10.0 mi SW 9.2 mph - N/A   Overcast
11:55 AM 50.0 °F - 32.0 °F 50% 29.45 in 10.0 mi SW 10.4 mph 17.3 mph N/A   Overcast
12:15 PM 50.0 °F - 32.0 °F 50% 29.45 in 10.0 mi West 10.4 mph 18.4 mph N/A   Overcast
12:35 PM 50.0 °F - 30.2 °F 47% 29.45 in 10.0 mi WSW 11.5 mph 19.6 mph N/A   Overcast
12:55 PM 50.0 °F - 32.0 °F 50% 29.45 in 10.0 mi WSW 8.1 mph - N/A   Overcast
1:15 PM 51.8 °F - 32.0 °F 47% 29.45 in 10.0 mi WSW 15.0 mph - N/A   Overcast
1:35 PM 51.8 °F - 30.2 °F 44% 29.45 in 10.0 mi WSW 12.7 mph 20.7 mph N/A   Overcast
1:55 PM 50.0 °F - 30.2 °F 47% 29.45 in 10.0 mi WSW 11.5 mph 19.6 mph N/A   Overcast
2:15 PM 51.8 °F - 32.0 °F 47% 29.45 in 10.0 mi WSW 9.2 mph 17.3 mph N/A   Overcast
2:35 PM 51.8 °F - 30.2 °F 44% 29.45 in 10.0 mi West 16.1 mph 25.3 mph N/A   Overcast
2:55 PM 51.8 °F - 30.2 °F 44% 29.45 in 10.0 mi WSW 12.7 mph 19.6 mph N/A   Overcast
3:15 PM 51.8 °F - 32.0 °F 47% 29.46 in 10.0 mi WSW 10.4 mph 20.7 mph N/A   Overcast
3:35 PM 51.8 °F - 32.0 °F 47% 29.46 in 10.0 mi WSW 11.5 mph 16.1 mph N/A   Overcast
3:55 PM 50.0 °F - 32.0 °F 50% 29.47 in 10.0 mi WSW 13.8 mph 19.6 mph N/A   Overcast
4:15 PM 51.8 °F - 32.0 °F 47% 29.48 in 10.0 mi WSW 12.7 mph 18.4 mph N/A   Overcast
4:35 PM 51.8 °F - 32.0 °F 47% 29.49 in 10.0 mi WSW 9.2 mph 17.3 mph N/A   Mostly Cloudy
4:55 PM 50.0 °F - 32.0 °F 50% 29.50 in 10.0 mi WSW 11.5 mph 18.4 mph N/A   Mostly Cloudy
5:15 PM 50.0 °F - 32.0 °F 50% 29.50 in 10.0 mi SW 10.4 mph 19.6 mph N/A   Overcast
5:55 PM 50.0 °F - 33.8 °F 54% 29.52 in 10.0 mi WSW 8.1 mph 16.1 mph N/A   Clear
6:15 PM 50.0 °F - 33.8 °F 54% 29.53 in 10.0 mi WSW 9.2 mph - N/A   Clear
6:55 PM 48.2 °F - 32.0 °F 54% 29.55 in 10.0 mi WSW 5.8 mph - N/A   Scattered Clouds
7:15 PM 48.2 °F - 32.0 °F 54% 29.55 in 10.0 mi WSW 6.9 mph - N/A   Scattered Clouds
7:35 PM 48.2 °F - 32.0 °F 54% 29.57 in 10.0 mi WSW 11.5 mph 17.3 mph N/A   Mostly Cloudy
7:55 PM 48.2 °F - 32.0 °F 54% 29.57 in 10.0 mi SW 6.9 mph - N/A   Overcast
8:15 PM 48.2 °F - 32.0 °F 54% 29.58 in 10.0 mi WSW 6.9 mph - N/A   Overcast
8:35 PM 48.2 °F - 32.0 °F 54% 29.59 in 10.0 mi SW 6.9 mph - N/A   Overcast
8:55 PM 46.4 °F 42.9 °F 32.0 °F 57% 29.60 in 10.0 mi WSW 6.9 mph - N/A   Overcast
9:15 PM 46.4 °F 42.9 °F 33.8 °F 62% 29.60 in 10.0 mi WSW 6.9 mph - N/A   Overcast
9:35 PM 46.4 °F 44.3 °F 33.8 °F 62% 29.61 in 10.0 mi SW 4.6 mph - N/A   Overcast
9:55 PM 46.4 °F 42.9 °F 33.8 °F 62% 29.61 in 10.0 mi SW 6.9 mph - N/A   Mostly Cloudy
10:15 PM 46.4 °F 43.5 °F 33.8 °F 62% 29.62 in 10.0 mi SW 5.8 mph - N/A   Mostly Cloudy
10:35 PM 46.4 °F 42.4 °F 33.8 °F 62% 29.62 in 10.0 mi SW 8.1 mph - N/A   Mostly Cloudy
10:55 PM 44.6 °F 40.7 °F 33.8 °F 66% 29.62 in 10.0 mi SW 6.9 mph - N/A   Scattered Clouds
11:15 PM 44.6 °F 40.7 °F 33.8 °F 66% 29.62 in 10.0 mi SW 6.9 mph - N/A   Clear
11:35 PM 44.6 °F 40.7 °F 33.8 °F 66% 29.62 in 10.0 mi SW 6.9 mph - N/A   Clear
11:55 PM 44.6 °F 41.4 °F 33.8 °F 66% 29.62 in 10.0 mi SW 5.8 mph - N/A   Clear